GW1213 Weather Reports


Display with metric or nautical units.
time (UTC)temp
F
wind
direction
speed
MPH
gust
MPH
rain 1hr
in
rain 24hr
in
rain mn
in
humidity
%
barometer
mb
20260904175540 94 258 1.0 4.0 0.00 0.17 0.17 56 1012.8
20260904175037 94 269 0.0 4.0 0.00 0.17 0.17 58 1012.9
20260904174605 93 240 1.0 3.0 0.00 0.17 0.17 60 1012.9
20260904174037 92 0 0.0 3.0 0.00 0.17 0.17 60 1012.9
20260904173537 92 0 0.0 3.0 0.00 0.17 0.17 61 1013.0
20260904173106 91 170 0.0 2.0 0.00 0.17 0.17 61 1013.0
20260904172537 91 0 0.0 3.0 0.00 0.17 0.17 61 1013.1
20260904172038 91 13 1.0 3.0 0.00 0.17 0.17 59 1013.1
20260904171556 91 348 0.0 3.0 0.00 0.17 0.17 62 1013.1
20260904171037 90 350 1.0 3.0 0.00 0.17 0.17 62 1013.1
20260904170538 90 0 0.0 3.0 0.00 0.17 0.17 63 1013.1
20260904165541 90 303 0.0 3.0 0.00 0.17 0.17 64 1013.2
20260904165037 90 346 1.0 3.0 0.00 0.17 0.17 63 1013.3
20260904164600 90 0 0.0 3.0 0.00 0.17 0.17 65 1013.4
20260904164037 90 0 0.0 6.0 0.00 0.17 0.17 63 1013.4
20260904163537 90 352 2.0 6.0 0.00 0.17 0.17 63 1013.5
20260904163056 90 329 0.0 3.0 0.00 0.17 0.17 63 1013.5
20260904162537 90 0 1.0 3.0 0.00 0.17 0.17 62 1013.6
20260904162038 90 311 1.0 3.0 0.00 0.17 0.17 61 1013.6
20260904161555 90 337 0.0 2.0 0.00 0.17 0.17 66 1013.7
20260904161038 89 322 0.0 1.0 0.00 0.17 0.17 64 1013.7
20260904160541 89 0 0.0 3.0 0.00 0.17 0.17 65 1013.8
20260904160106 88 0 0.0 3.0 0.00 0.17 0.17 66 1013.7
20260904155534 88 322 0.0 3.0 0.00 0.17 0.17 66 1013.7
20260904155037 88 351 1.0 3.0 0.00 0.17 0.17 65 1013.6
20260904154620 88 350 0.0 3.0 0.00 0.17 0.17 67 1013.8
20260904154038 87 181 0.0 3.0 0.00 0.17 0.17 67 1013.7
20260904153538 86 306 0.0 4.0 0.00 0.17 0.17 71 1013.8
20260904153102 86 351 1.0 4.0 0.00 0.17 0.17 69 1013.8
20260904152538 86 350 1.0 4.0 0.00 0.17 0.17 68 1013.8
20260904152037 86 0 0.0 2.0 0.00 0.17 0.17 72 1013.8
20260904151608 85 334 0.0 2.0 0.00 0.17 0.17 74 1013.8
20260904151037 85 331 0.0 2.0 0.00 0.17 0.17 74 1013.8
20260904150539 85 346 0.0 2.0 0.00 0.17 0.17 73 1013.9
20260904150104 85 0 0.0 3.0 0.00 0.17 0.17 75 1014.0
20260904145538 85 0 0.0 3.0 0.00 0.17 0.17 76 1014.0
20260904145038 84 0 0.0 3.0 0.00 0.17 0.17 75 1013.9
20260904144601 84 0 0.0 0.0 0.00 0.17 0.17 76 1014.0
20260904144040 84 0 0.0 0.0 0.00 0.17 0.17 79 1014.1
20260904143539 83 0 0.0 0.0 0.00 0.17 0.17 80 1014.1
20260904143058 82 0 0.0 1.0 0.00 0.17 0.17 81 1014.2
20260904142538 82 0 0.0 2.0 0.00 0.17 0.17 82 1014.1
20260904142037 81 0 0.0 2.0 0.00 0.17 0.17 84 1014.1
20260904141621 81 0 0.0 1.0 0.00 0.17 0.17 84 1014.2
20260904141037 81 0 0.0 2.0 0.00 0.17 0.17 84 1014.2
20260904140538 81 0 0.0 2.0 0.00 0.17 0.17 84 1014.0
20260904140106 80 0 0.0 1.0 0.00 0.17 0.17 85 1014.0
20260904135538 80 0 0.0 1.0 0.00 0.17 0.17 86 1014.1
20260904135037 79 0 0.0 2.0 0.00 0.17 0.17 86 1014.1
20260904134619 79 0 0.0 2.0 0.00 0.17 0.17 87 1014.1
20260904134037 78 9 0.0 2.0 0.00 0.17 0.17 88 1014.1
20260904133537 78 0 0.0 2.0 0.00 0.17 0.17 89 1014.2
20260904133115 78 0 0.0 2.0 0.00 0.17 0.17 90 1014.2
20260904132538 77 0 0.0 2.0 0.00 0.17 0.17 90 1014.3
20260904132035 77 0 0.0 4.0 0.00 0.17 0.17 92 1014.2
20260904131614 77 0 1.0 4.0 0.00 0.17 0.17 91 1014.1
20260904131040 77 0 0.0 2.0 0.00 0.17 0.17 92 1014.1
20260904130538 77 0 0.0 0.0 0.00 0.17 0.17 92 1014.2
20260904130054 76 0 0.0 2.0 0.00 0.17 0.17 93 1014.3
20260904125538 76 0 0.0 2.0 0.00 0.17 0.17 93 1014.2
20260904125042 76 338 0.0 2.0 0.00 0.17 0.17 94 1014.2
20260904124600 76 0 0.0 0.0 0.00 0.17 0.17 94 1014.1
20260904124038 76 0 0.0 0.0 0.00 0.17 0.17 95 1014.1
20260904123537 75 0 0.0 0.0 0.00 0.17 0.17 95 1013.9
20260904123111 75 0 0.0 0.0 0.00 0.17 0.17 95 1013.8
20260904122538 75 0 0.0 0.0 0.00 0.17 0.17 95 1013.7
20260904122038 75 0 0.0 0.0 0.00 0.17 0.17 95 1013.6
20260904121559 75 0 0.0 0.0 0.00 0.17 0.17 96 1013.6
20260904121038 74 0 0.0 0.0 0.00 0.17 0.17 96 1013.5
20260904120538 74 0 0.0 0.0 0.00 0.17 0.17 97 1013.7
20260904120053 74 0 0.0 0.0 0.00 0.17 0.17 97 1013.6
20260904115538 73 0 0.0 0.0 0.00 0.17 0.17 97 1013.7
20260904115038 73 0 0.0 0.0 0.00 0.17 0.17 97 1013.6
20260904114600 73 0 0.0 0.0 0.00 0.17 0.17 97 1013.6
20260904114038 73 0 0.0 0.0 0.00 0.17 0.17 98 1013.6
20260904113538 73 0 0.0 0.0 0.00 0.17 0.17 98 1013.6
20260904113102 72 0 0.0 0.0 0.00 0.17 0.17 98 1013.5
20260904112538 72 0 0.0 0.0 0.00 0.17 0.17 98 1013.5
20260904112037 72 0 0.0 0.0 0.00 0.17 0.17 97 1013.6
20260904111602 72 0 0.0 0.0 0.00 0.17 0.17 97 1013.5
20260904111038 72 0 0.0 0.0 0.00 0.17 0.17 97 1013.5
20260904110538 72 0 0.0 0.0 0.00 0.17 0.17 97 1013.5
20260904110057 72 0 0.0 0.0 0.00 0.17 0.17 97 1013.4
20260904105538 71 0 0.0 0.0 0.00 0.17 0.17 97 1013.4
20260904105038 71 0 0.0 0.0 0.00 0.17 0.17 97 1013.2
20260904104603 71 0 0.0 0.0 0.00 0.17 0.17 97 1013.3
20260904104037 71 0 0.0 0.0 0.00 0.17 0.17 97 1013.3
20260904103538 71 0 0.0 0.0 0.00 0.17 0.17 97 1013.3
20260904103105 71 0 0.0 0.0 0.00 0.17 0.17 97 1013.2
20260904102538 71 0 0.0 0.0 0.00 0.17 0.17 97 1013.2
20260904102038 71 0 0.0 0.0 0.00 0.17 0.17 97 1013.1
20260904101600 71 0 0.0 0.0 0.00 0.17 0.17 97 1013.1
20260904101038 71 0 0.0 0.0 0.00 0.17 0.17 97 1013.1
20260904100538 72 0 0.0 0.0 0.00 0.17 0.17 97 1013.1
20260904100105 71 0 0.0 0.0 0.00 0.17 0.17 97 1013.0
20260904095538 72 0 0.0 0.0 0.00 0.17 0.17 97 1013.0
20260904095039 72 0 0.0 0.0 0.00 0.17 0.17 97 1013.0
20260904094603 72 0 0.0 0.0 0.00 0.17 0.17 96 1013.0
20260904094038 72 0 0.0 0.0 0.00 0.17 0.17 97 1012.9
20260904093538 72 0 0.0 0.0 0.00 0.17 0.17 97 1013.0
20260904093102 72 0 0.0 0.0 0.00 0.17 0.17 96 1013.1
20260904092537 72 0 0.0 0.0 0.00 0.17 0.17 96 1013.1
20260904092037 72 0 0.0 0.0 0.00 0.17 0.17 96 1013.1
20260904091555 72 0 0.0 0.0 0.00 0.17 0.17 96 1013.1
20260904091037 72 0 0.0 0.0 0.00 0.17 0.17 96 1013.1
20260904090537 72 0 0.0 0.0 0.00 0.17 0.17 96 1013.2
20260904085537 72 0 0.0 0.0 0.00 0.17 0.17 96 1013.2
20260904085041 72 0 0.0 0.0 0.00 0.17 0.17 97 1013.0
20260904084601 72 0 0.0 0.0 0.00 0.17 0.17 96 1013.2
20260904084037 72 0 0.0 0.0 0.00 0.17 0.17 96 1013.1
20260904083537 72 0 0.0 0.0 0.00 0.17 0.17 96 1013.1
20260904083056 72 0 0.0 0.0 0.00 0.17 0.17 96 1013.1
20260904082538 72 0 0.0 0.0 0.00 0.17 0.17 97 1013.2
20260904082034 72 0 0.0 0.0 0.00 0.17 0.17 97 1013.2
20260904081601 72 0 0.0 0.0 0.00 0.17 0.17 97 1013.2
20260904081038 72 0 0.0 0.0 0.00 0.17 0.17 96 1013.2
20260904080538 72 0 0.0 0.0 0.00 0.17 0.17 96 1013.1
20260904080107 72 0 0.0 0.0 0.00 0.17 0.17 96 1013.3
20260904075538 72 0 0.0 0.0 0.00 0.17 0.17 96 1013.3
20260904075038 72 0 0.0 0.0 0.00 0.17 0.17 96 1013.1
20260904074556 72 0 0.0 0.0 0.00 0.17 0.17 96 1012.9
20260904074035 72 0 0.0 0.0 0.00 0.17 0.17 96 1013.0
20260904073537 72 0 0.0 0.0 0.00 0.17 0.17 96 1012.8
20260904073103 72 0 0.0 0.0 0.00 0.17 0.17 96 1012.9
20260904072537 72 0 0.0 0.0 0.00 0.17 0.17 96 1012.8
20260904072038 72 0 0.0 0.0 0.00 0.17 0.17 96 1012.8
20260904071602 72 0 0.0 0.0 0.00 0.17 0.17 96 1012.7
20260904071041 72 0 0.0 0.0 0.00 0.17 0.17 95 1012.6
20260904070540 72 0 0.0 0.0 0.00 0.17 0.17 95 1012.6
20260904065537 72 0 0.0 1.0 0.00 0.17 0.17 95 1012.2
20260904065037 72 0 0.0 1.0 0.00 0.17 0.17 95 1012.3
20260904064621 72 0 0.0 1.0 0.00 0.17 0.17 95 1012.4
20260904064041 72 0 0.0 0.0 0.00 0.17 0.17 95 1012.4
20260904063538 72 0 0.0 0.0 0.00 0.17 0.17 95 1012.5
20260904063103 72 0 0.0 0.0 0.00 0.17 0.17 95 1012.7
20260904062537 72 0 0.0 0.0 0.00 0.17 0.17 94 1012.4
20260904062037 72 0 0.0 0.0 0.00 0.17 0.17 94 1012.5
20260904061601 73 0 0.0 0.0 0.00 0.17 0.17 95 1012.6
20260904061037 73 0 0.0 2.0 0.01 0.17 0.17 94 1012.8
20260904060537 73 0 0.0 4.0 0.13 0.17 0.17 94 1012.9
20260904060058 73 78 0.0 4.0 0.17 0.17 0.17 94 1012.7
20260904055537 73 66 0.0 4.0 0.17 0.17 0.17 94 1012.8
20260904055038 73 111 1.0 4.0 0.17 0.17 0.17 94 1012.9
20260904054603 73 0 0.0 3.0 0.17 0.17 0.17 94 1013.4
20260904054034 74 0 0.0 0.0 0.17 0.17 0.17 94 1013.5
20260904053537 74 0 0.0 0.0 0.17 0.17 0.17 93 1013.7
20260904053100 74 0 0.0 0.0 0.17 0.17 0.17 92 1013.9
20260904052541 74 0 0.0 1.0 0.17 0.17 0.17 92 1013.7
20260904052038 75 0 0.0 2.0 0.17 0.17 0.17 91 1014.2
20260904051605 75 0 0.0 3.0 0.17 0.17 0.17 90 1015.0
20260904051037 76 0 0.0 9.0 0.15 0.15 0.15 88 1015.0
20260904050537 77 273 1.0 9.0 0.04 0.04 0.04 86 1015.6
20260904050126 78 339 3.0 9.0 0.00 0.00 0.00 83 1015.4
20260904045535 78 360 2.0 6.0 0.00 0.00 0.00 81 1015.6
20260904045038 79 276 2.0 8.0 0.00 0.00 0.00 81 1015.9
20260904044603 79 342 3.0 10.0 0.00 0.00 0.00 81 1015.4
20260904044037 80 338 5.0 10.0 0.00 0.00 0.00 82 1015.4
20260904043537 80 343 5.0 10.0 0.00 0.00 0.00 86 1015.3
20260904043103 80 342 2.0 4.0 0.00 0.00 0.00 92 1014.8
20260904042535 80 316 0.0 3.0 0.00 0.00 0.00 94 1014.2
20260904042038 80 0 0.0 0.0 0.00 0.00 0.00 94 1013.4
20260904041615 80 0 0.0 0.0 0.00 0.00 0.00 94 1013.5
20260904041038 80 0 0.0 0.0 0.00 0.00 0.00 94 1013.6
20260904040538 80 0 0.0 0.0 0.00 0.00 0.00 94 1013.6
20260904040105 80 0 0.0 0.0 0.00 0.00 0.00 94 1013.6
20260904035538 80 0 0.0 0.0 0.00 0.00 0.00 94 1013.5
20260904035035 80 0 0.0 0.0 0.00 0.00 0.00 94 1013.4
20260904034608 80 0 0.0 0.0 0.00 0.00 0.00 94 1013.2
20260904034037 80 0 0.0 0.0 0.00 0.00 0.00 94 1013.2
20260904033539 80 0 0.0 0.0 0.00 0.00 0.00 94 1013.1
20260904033056 80 0 0.0 0.0 0.00 0.00 0.00 94 1013.1
20260904032541 80 0 0.0 0.0 0.00 0.00 0.00 94 1012.9
20260904032036 80 0 0.0 0.0 0.00 0.00 0.00 94 1012.9
20260904031604 80 0 0.0 0.0 0.00 0.00 0.00 94 1012.8
20260904031038 80 0 0.0 0.0 0.00 0.00 0.00 94 1012.7
20260904030538 80 0 0.0 0.0 0.00 0.00 0.00 94 1012.9
20260904025538 81 0 0.0 0.0 0.00 0.00 0.00 94 1013.0
20260904025038 81 0 0.0 0.0 0.00 0.00 0.00 94 1013.0
20260904024600 81 0 0.0 0.0 0.00 0.00 0.00 94 1012.9
20260904024035 81 0 0.0 0.0 0.00 0.00 0.00 93 1012.9
20260904023541 81 0 0.0 0.0 0.00 0.00 0.00 93 1013.1
20260904023102 81 0 0.0 0.0 0.00 0.00 0.00 93 1013.0
20260904022538 81 0 0.0 0.0 0.00 0.00 0.00 93 1013.1
20260904022039 81 0 0.0 0.0 0.00 0.00 0.00 93 1013.1
20260904021602 81 0 0.0 0.0 0.00 0.00 0.00 93 1013.0
20260904021037 81 0 0.0 0.0 0.00 0.00 0.00 93 1013.2
20260904020535 81 0 0.0 0.0 0.00 0.00 0.00 93 1013.4
20260904020106 81 0 0.0 0.0 0.00 0.00 0.00 93 1013.4
20260904015537 81 0 0.0 0.0 0.00 0.00 0.00 93 1013.4
20260904015038 81 0 0.0 0.0 0.00 0.00 0.00 92 1013.3
20260904014631 81 0 0.0 0.0 0.00 0.00 0.00 92 1013.2
20260904014038 81 0 0.0 0.0 0.00 0.00 0.00 92 1013.1
20260904013541 81 0 0.0 0.0 0.00 0.00 0.00 92 1013.1
20260904013103 81 0 0.0 0.0 0.00 0.00 0.00 92 1013.3
20260904012538 81 0 0.0 0.0 0.00 0.00 0.00 92 1013.2
20260904012039 81 0 0.0 0.0 0.00 0.00 0.00 92 1013.3
20260904011609 81 0 0.0 0.0 0.00 0.00 0.00 92 1013.3
20260904011037 81 0 0.0 0.0 0.00 0.00 0.00 91 1013.4
20260904010538 82 0 0.0 0.0 0.00 0.00 0.00 90 1013.5
20260904010105 82 0 0.0 0.0 0.00 0.00 0.00 90 1013.6
20260904005535 82 0 0.0 0.0 0.00 0.00 0.00 90 1013.7
20260904005037 82 0 0.0 0.0 0.00 0.00 0.00 89 1013.8
20260904004605 82 0 0.0 0.0 0.00 0.00 0.00 89 1013.9
20260904004038 82 0 0.0 0.0 0.00 0.00 0.00 89 1013.9
20260904003542 83 0 0.0 0.0 0.00 0.00 0.00 89 1014.0
20260904003103 83 0 0.0 0.0 0.00 0.00 0.00 88 1013.9
20260904002538 83 0 0.0 0.0 0.00 0.00 0.00 87 1013.8
20260904002038 83 0 0.0 0.0 0.00 0.00 0.00 86 1013.8
20260904001556 84 0 0.0 0.0 0.00 0.00 0.00 86 1013.8
20260904001037 84 0 0.0 0.0 0.00 0.00 0.00 85 1013.8
20260904000535 84 0 0.0 0.0 0.00 0.00 0.00 85 1013.7
20260903235537 85 0 0.0 0.0 0.00 0.00 0.00 83 1013.5
20260903235041 86 0 0.0 0.0 0.00 0.00 0.00 81 1013.5
20260903234600 86 0 0.0 0.0 0.00 0.00 0.00 81 1013.3
20260903234038 87 0 0.0 0.0 0.00 0.00 0.00 81 1013.2
20260903233538 87 0 0.0 0.0 0.00 0.00 0.00 80 1013.2
20260903233101 88 0 0.0 0.0 0.00 0.00 0.00 78 1013.4
20260903232538 88 0 0.0 0.0 0.00 0.00 0.00 76 1013.3
20260903232040 88 0 0.0 2.0 0.00 0.00 0.00 75 1013.2
20260903231612 88 0 0.0 2.0 0.00 0.00 0.00 75 1013.3
20260903231037 88 0 0.0 4.0 0.00 0.00 0.00 74 1013.3
20260903230537 89 0 0.0 4.0 0.00 0.00 0.00 74 1013.2
20260903230112 89 0 0.0 2.0 0.00 0.00 0.00 74 1013.2
20260903225538 89 0 0.0 0.0 0.00 0.00 0.00 74 1013.1
20260903225038 89 0 0.0 0.0 0.00 0.00 0.00 74 1013.1
20260903224603 89 0 0.0 0.0 0.00 0.00 0.00 73 1013.0
20260903224042 89 0 0.0 2.0 0.00 0.00 0.00 73 1013.0
20260903223538 90 0 0.0 3.0 0.00 0.00 0.00 72 1013.0
20260903223114 90 0 0.0 3.0 0.00 0.00 0.00 71 1012.9
20260903222538 90 0 0.0 3.0 0.00 0.00 0.00 71 1012.8
20260903222038 90 0 0.0 4.0 0.00 0.00 0.00 71 1012.7
20260903221600 90 277 1.0 4.0 0.00 0.00 0.00 71 1012.8
20260903221038 90 0 0.0 4.0 0.00 0.00 0.00 71 1012.8
20260903220539 90 226 1.0 4.0 0.00 0.00 0.00 71 1012.9
20260903220107 90 237 0.0 3.0 0.00 0.00 0.00 70 1012.9
20260903215541 90 192 0.0 3.0 0.00 0.00 0.00 70 1012.9
20260903215039 90 0 0.0 6.0 0.00 0.00 0.00 70 1012.9
20260903214606 90 0 0.0 6.0 0.00 0.00 0.00 69 1013.0
20260903214036 90 281 1.0 6.0 0.00 0.00 0.00 69 1013.1
20260903213538 90 240 0.0 5.0 0.00 0.00 0.00 68 1013.3
20260903213102 90 284 0.0 5.0 0.00 0.00 0.00 69 1013.2
20260903212538 90 0 0.0 3.0 0.00 0.00 0.00 68 1013.1
20260903212038 91 0 0.0 5.0 0.00 0.00 0.00 67 1013.2
20260903211615 91 0 1.0 5.0 0.00 0.00 0.00 67 1013.3
20260903211037 91 272 2.0 7.0 0.00 0.00 0.00 66 1013.4
20260903210541 91 165 1.0 7.0 0.00 0.00 0.00 66 1013.5
20260903210058 91 177 1.0 7.0 0.00 0.00 0.00 66 1013.5
20260903205537 91 105 2.0 7.0 0.00 0.00 0.00 67 1013.5
20260903205036 91 260 2.0 7.0 0.00 0.00 0.00 66 1013.5
20260903204605 91 209 1.0 4.0 0.00 0.00 0.00 66 1013.6
20260903204038 91 127 2.0 5.0 0.00 0.00 0.00 65 1013.6
20260903203537 92 180 1.0 5.0 0.00 0.00 0.00 65 1013.6
20260903203105 91 0 2.0 6.0 0.00 0.00 0.00 64 1013.7
20260903202539 91 179 2.0 7.0 0.00 0.00 0.00 65 1013.8
20260903202037 92 208 3.0 7.0 0.00 0.00 0.00 65 1013.8
20260903201559 92 171 0.0 5.0 0.00 0.00 0.00 66 1013.9
20260903201041 91 150 2.0 5.0 0.00 0.00 0.00 66 1014.0
20260903200537 91 147 1.0 4.0 0.00 0.00 0.00 66 1014.1
20260903200108 91 271 0.0 4.0 0.00 0.00 0.00 67 1014.2
20260903195534 91 247 0.0 4.0 0.00 0.00 0.00 67 1014.3
20260903195041 91 0 0.0 4.0 0.00 0.00 0.00 67 1014.3
20260903194602 91 0 0.0 0.0 0.00 0.00 0.00 68 1014.3
20260903194037 91 0 0.0 2.0 0.00 0.00 0.00 69 1014.3
20260903193535 90 0 0.0 3.0 0.00 0.00 0.00 70 1014.5
20260903193103 90 0 0.0 3.0 0.00 0.00 0.00 68 1014.6
20260903192538 90 244 0.0 4.0 0.00 0.00 0.00 67 1014.7
20260903192034 89 0 1.0 4.0 0.00 0.00 0.00 70 1014.8
20260903191604 89 0 0.0 2.0 0.00 0.00 0.00 69 1015.0
20260903191037 88 0 0.0 5.0 0.00 0.00 0.00 70 1014.9
20260903190537 88 0 0.0 5.0 0.00 0.00 0.00 71 1014.8
20260903190058 88 0 0.0 3.0 0.00 0.00 0.00 72 1014.8
20260903185537 88 209 0.0 3.0 0.00 0.00 0.00 72 1014.8
20260903185037 88 176 0.0 3.0 0.00 0.00 0.00 72 1014.9
20260903184604 88 0 0.0 3.0 0.00 0.00 0.00 73 1015.1
20260903184037 88 263 0.0 3.0 0.00 0.00 0.00 74 1015.1
20260903183541 87 0 0.0 3.0 0.00 0.00 0.00 73 1015.1
20260903183120 87 0 0.0 0.0 0.00 0.00 0.00 73 1015.1
20260903182538 87 0 0.0 0.0 0.00 0.00 0.00 74 1015.2
20260903182035 87 0 0.0 0.0 0.00 0.00 0.00 74 1015.3
20260903181636 87 0 0.0 0.0 0.00 0.00 0.00 74 1015.3
20260903181040 87 0 0.0 0.0 0.00 0.00 0.00 73 1015.4
20260903180537 87 0 0.0 0.0 0.00 0.00 0.00 72 1015.5
20260903180059 87 0 0.0 1.0 0.00 0.00 0.00 72 1015.7